EW0680 Weather Reports


time (UTC)temp
C
wind
direction
speed
KPH
gust
KPH
rain 1hr
cm
rain 24hr
cm
rain mn
cm
humidity
%
barometer
mb
20260905191505 28 351 0.0 8.0 0.00 2.34 0.53 76 1012.5
20260905190007 28 19 0.0 4.8 0.00 2.34 0.53 78 1012.7
20260905184519 27 303 1.6 8.0 0.00 2.34 0.53 78 1012.7
20260905183021 27 264 0.0 4.8 0.00 2.34 0.53 79 1012.9
20260905181559 26 13 1.6 4.8 0.00 2.34 0.53 80 1013.1
20260905181502 26 2 0.0 4.8 0.00 2.34 0.53 81 1013.1
20260905180055 26 221 0.0 6.4 0.00 2.34 0.53 81 1013.2
20260905174603 25 44 1.6 6.4 0.00 2.34 0.53 83 1013.2
20260905173008 24 355 0.0 8.0 0.00 2.34 0.53 85 1013.1
20260905171508 23 353 3.2 8.0 0.00 2.34 0.53 86 1013.3
20260905170014 23 354 3.2 6.4 0.03 2.34 0.53 86 1013.3
20260905164520 23 6 6.4 9.7 0.03 2.34 0.53 85 1013.6
20260905163027 24 6 0.0 6.4 0.03 2.34 0.53 84 1013.4
20260905161528 25 352 4.8 8.0 0.03 2.34 0.53 83 1013.8
20260905160033 25 5 0.0 0.0 0.00 2.31 0.51 83 1013.4
20260905154516 25 119 1.6 4.8 0.00 2.31 0.51 83 1013.2
20260905153027 24 174 0.0 0.0 0.00 2.31 0.51 85 1013.1
20260905151527 24 174 0.0 3.2 0.00 2.31 0.51 85 1013.0
20260905150026 23 290 0.0 3.2 0.00 2.31 0.51 87 1013.1
20260905144543 23 268 0.0 3.2 0.00 2.31 0.51 87 1013.1
20260905143037 22 19 0.0 6.4 0.00 2.31 0.51 89 1012.9
20260905141546 21 62 3.2 6.4 0.00 2.31 0.51 90 1012.9
20260905140034 21 134 0.0 3.2 0.00 2.31 0.51 90 1012.6
20260905134541 20 341 0.0 0.0 0.00 2.31 0.51 90 1012.7
20260905133044 20 218 0.0 0.0 0.00 2.31 0.51 90 1012.7
20260905131601 20 218 0.0 0.0 0.00 2.31 0.51 90 1013.7
20260905130051 20 218 0.0 0.0 0.00 2.31 0.51 90 1013.7
20260905124559 20 156 0.0 0.0 0.00 2.31 0.51 90 1013.7
20260905123014 19 157 0.0 1.6 0.03 2.31 0.51 90 1014.3
20260905121517 19 159 3.2 6.4 0.13 2.31 0.51 90 1013.6
20260905120014 19 152 3.2 8.0 0.20 2.31 0.51 90 1013.9
20260905114520 19 142 4.8 9.7 0.30 2.31 0.51 89 1014.1
20260905113027 19 131 0.0 3.2 0.33 2.29 0.48 89 1014.5
20260905111524 19 33 0.0 0.0 0.23 2.18 0.38 89 1015.3
20260905110020 19 146 0.0 6.4 0.13 2.08 0.30 89 1015.2
20260905104522 19 124 1.6 8.0 0.05 2.01 0.20 89 1015.1
20260905103041 19 163 1.6 9.7 0.08 1.96 0.15 89 1014.8
20260905101532 19 2 0.0 4.8 0.15 1.96 0.15 89 1014.9
20260905100045 19 181 3.2 9.7 0.15 1.96 0.15 89 1015.0
20260905094542 19 196 3.2 14.5 0.15 1.96 0.15 89 1015.2
20260905093042 19 337 8.0 14.5 0.08 1.88 0.08 88 1015.6
20260905091546 20 329 8.0 19.3 0.00 1.80 0.00 86 1015.7
20260905090040 21 355 14.5 38.6 0.00 1.80 0.00 86 1015.3
20260905084540 21 347 17.7 29.0 0.00 1.80 0.00 89 1014.8
20260905083041 21 88 0.0 0.0 0.00 1.80 0.00 89 1012.8
20260905081526 21 88 0.0 1.6 0.00 1.80 0.00 89 1012.7
20260905080036 21 161 0.0 3.2 0.00 1.80 0.00 89 1012.7
20260905074533 21 161 1.6 4.8 0.00 1.80 0.00 89 1012.6
20260905073036 21 146 0.0 0.0 0.00 1.80 0.00 89 1012.5
20260905071540 21 146 0.0 0.0 0.00 1.80 0.00 89 1012.3
20260905070052 21 146 0.0 0.0 0.00 1.80 0.00 89 1011.8
20260905064558 21 146 0.0 0.0 0.00 1.80 0.00 89 1011.5
20260905063052 21 146 0.0 0.0 0.00 1.80 0.00 89 1011.8
20260905061557 21 146 0.0 0.0 0.00 1.80 0.00 89 1012.2
20260905060104 21 146 0.0 0.0 0.00 1.80 0.00 89 1012.5
20260905054613 21 146 0.0 4.8 0.00 1.80 0.00 89 1012.8
20260905054502 21 146 1.6 4.8 0.00 1.80 0.00 89 1012.8
20260905053009 21 146 0.0 0.0 0.00 1.80 0.00 89 1012.9
20260905051514 21 146 1.6 4.8 0.00 1.80 0.00 88 1013.2
20260905050017 22 183 3.2 6.4 0.00 1.80 0.00 88 1013.5
20260905044516 21 174 0.0 4.8 0.00 1.80 0.00 89 1013.6
20260905043011 21 163 0.0 4.8 0.00 1.80 0.00 89 1013.7
20260905041514 21 142 0.0 4.8 0.00 1.80 0.00 88 1013.8
20260905040011 22 159 1.6 4.8 0.00 1.80 0.00 88 1013.5
20260905034516 22 159 0.0 3.2 0.00 1.80 1.80 89 1013.7
20260905033014 22 159 1.6 4.8 0.00 1.80 1.80 89 1013.7
20260905031556 22 165 1.6 4.8 0.00 1.80 1.80 89 1013.6
20260905030059 22 171 1.6 4.8 0.00 1.80 1.80 89 1013.4
20260905024554 22 335 0.0 0.0 0.00 1.80 1.80 89 1013.3
20260905023045 22 335 0.0 0.0 0.00 1.80 1.80 88 1013.4
20260905021553 22 335 0.0 0.0 0.00 1.80 1.80 88 1013.3
20260905020004 22 335 0.0 0.0 0.00 1.80 1.80 88 1013.0
20260905014504 22 335 0.0 0.0 0.00 1.80 1.80 88 1013.0
20260905013007 22 335 0.0 0.0 0.00 1.80 1.80 88 1012.8
20260905011511 23 335 0.0 0.0 0.00 1.80 1.80 88 1012.9
20260905010017 23 335 0.0 0.0 0.00 1.80 1.80 88 1012.9
20260905004531 23 335 0.0 4.8 0.00 1.80 1.80 88 1012.8
20260905003004 23 335 0.0 0.0 0.00 1.80 1.80 87 1012.7
20260905001508 23 274 0.0 0.0 0.00 1.80 1.80 87 1012.6
20260905000016 23 274 0.0 0.0 0.00 1.80 1.80 87 1012.7
20260904234525 23 274 0.0 0.0 0.00 1.80 1.80 87 1012.5
20260904233038 24 274 0.0 0.0 0.00 1.80 1.80 87 1012.6
20260904231527 24 274 0.0 0.0 0.00 1.80 1.80 87 1012.8
20260904230040 24 274 0.0 0.0 0.00 1.80 1.80 87 1012.7
20260904224537 24 274 0.0 0.0 0.00 1.80 1.80 87 1012.9
20260904223043 24 274 0.0 0.0 0.00 1.80 1.80 87 1013.1
20260904221553 24 173 0.0 0.0 0.00 1.80 1.80 87 1013.2
20260904220107 24 173 0.0 0.0 0.00 1.80 1.80 88 1013.2
20260904214558 23 183 0.0 6.4 0.00 1.80 1.80 88 1013.3
20260904213005 23 293 0.0 4.8 0.00 1.80 1.80 88 1012.7
20260904211505 22 251 0.0 0.0 0.00 1.80 1.80 89 1012.7
20260904210007 21 251 1.6 4.8 0.00 1.80 1.80 88 1013.5
20260904204506 21 196 1.6 8.0 0.08 1.80 1.80 88 1013.7
20260904203009 21 163 3.2 8.0 0.91 1.80 1.80 88 1013.4
20260904201509 21 175 3.2 8.0 1.80 1.80 1.80 89 1014.1
20260904200019 21 172 4.8 6.4 1.80 1.80 1.80 89 1014.1
20260904194515 20 163 3.2 30.6 1.73 1.73 1.73 89 1014.5
20260904193021 21 349 29.0 83.7 0.89 0.89 0.94 84 1017.0